Address 0x26377e03700722018f2c5071c0bb61af6b401a25

Txn Hash Method
Block
From
To
Value [Txn Fee]
0x9aec84f31661ae819fd9a9b56e0280eab643ab3e85c0b2d5af33d487bf6cfb270xb65c474d126632412021-09-25 3:58:0848 mins ago0x26377e03700722018f2c5071c0bb61af6b401a25OUT 0x4bc089e14fa31a02764e8874fa7b921f7eaa647f0 BNB0.00237212
0x11d59b89470e26f7bc52eb8e24859bb8e4673bedab45bbd2d89d4d8fa15dd0680xea5d7dee126627002021-09-25 3:31:051 hr 15 mins ago0x26377e03700722018f2c5071c0bb61af6b401a25OUT 0x4bc089e14fa31a02764e8874fa7b921f7eaa647f0 BNB0.00425631
0x2bd6536465d307a44e5ee6e079f02c221d14dfd267274f37a25534fff63b5a330xb65c474d126620012021-09-25 2:56:081 hr 50 mins ago0x26377e03700722018f2c5071c0bb61af6b401a25OUT 0x4bc089e14fa31a02764e8874fa7b921f7eaa647f0 BNB0.00237212
0x05d0edaeb74c057fe5d890422b2c2a20c77702ed64b6f12629fdfa5d9727589f0xb65c474d126607612021-09-25 1:54:082 hrs 52 mins ago0x26377e03700722018f2c5071c0bb61af6b401a25OUT 0x4bc089e14fa31a02764e8874fa7b921f7eaa647f0 BNB0.00237212
0x2cd78212071c10d3cfd3fa932762eb2a9922a42bc6feb8f057ce745c0faab8580xea5d7dee126603802021-09-25 1:35:053 hrs 11 mins ago0x26377e03700722018f2c5071c0bb61af6b401a25OUT 0x4bc089e14fa31a02764e8874fa7b921f7eaa647f0 BNB0.00406431
0x46881470e573e4f3402240fa0b73b4429f5b86c5c3e8db69f44759a6265367be0xb65c474d126595212021-09-25 0:52:083 hrs 54 mins ago0x26377e03700722018f2c5071c0bb61af6b401a25OUT 0x4bc089e14fa31a02764e8874fa7b921f7eaa647f0 BNB0.00237212
0x4fd837e35d5bc90c94e015008d6f5b9c50814fc843e8080be4b01e8a661015470xb65c474d126583012021-09-24 23:50:074 hrs 56 mins ago0x26377e03700722018f2c5071c0bb61af6b401a25OUT 0x4bc089e14fa31a02764e8874fa7b921f7eaa647f0 BNB0.00237212
0xb2df956b35add91201dc46e51d608a34bfef9d42e8a8bdc576711454520dd5ec0xea5d7dee126580812021-09-24 23:39:075 hrs 7 mins ago0x26377e03700722018f2c5071c0bb61af6b401a25OUT 0x4bc089e14fa31a02764e8874fa7b921f7eaa647f0 BNB0.00406431
0xe8f88795935e1f7aa8690d6df9114edf7dfd6dbd980e512c13def3f998b155110xb65c474d126570622021-09-24 22:48:065 hrs 58 mins ago0x26377e03700722018f2c5071c0bb61af6b401a25OUT 0x4bc089e14fa31a02764e8874fa7b921f7eaa647f0 BNB0.00237212
0x0fcf178c00f8e908b326f6b8110e68075a09f355c8d87d17ca42defaf990873c0xb65c474d126558222021-09-24 21:46:067 hrs ago0x26377e03700722018f2c5071c0bb61af6b401a25OUT 0x4bc089e14fa31a02764e8874fa7b921f7eaa647f0 BNB0.00237212
0xce8ad49f56ad9886b1bda32eebbb6e713d92fd1e097c54022aa2d2170a125f890xea5d7dee126557622021-09-24 21:43:067 hrs 3 mins ago0x26377e03700722018f2c5071c0bb61af6b401a25OUT 0x4bc089e14fa31a02764e8874fa7b921f7eaa647f0 BNB0.00425631
0xa627fdda85ea20f002477c6636c3330e0c31fc45bc354957745a8605dd990e600xb65c474d126545832021-09-24 20:44:098 hrs 2 mins ago0x26377e03700722018f2c5071c0bb61af6b401a25OUT 0x4bc089e14fa31a02764e8874fa7b921f7eaa647f0 BNB0.00237212
0x6787d87840b7ddd1fbb514201caca7131d3362e8bd7b912c2a1b5a29f0fc541f0xea5d7dee126534422021-09-24 19:47:068 hrs 59 mins ago0x26377e03700722018f2c5071c0bb61af6b401a25OUT 0x4bc089e14fa31a02764e8874fa7b921f7eaa647f0 BNB0.00425385
0x7d4148ea3e2518c96a6c4c3f8fdd23ed703678fa8d4490ead06bd3d4a1209b4f0xb65c474d126533432021-09-24 19:42:099 hrs 4 mins ago0x26377e03700722018f2c5071c0bb61af6b401a25OUT 0x4bc089e14fa31a02764e8874fa7b921f7eaa647f0 BNB0.00237212
0xad966e427bce935c7394aca4e78012e661ca1ab5af42b8d98dca4a8c82222f8c0xb65c474d126521032021-09-24 18:40:0910 hrs 6 mins ago0x26377e03700722018f2c5071c0bb61af6b401a25OUT 0x4bc089e14fa31a02764e8874fa7b921f7eaa647f0 BNB0.00237212
0x8fbc41b64f16832e46d2ad627030f166e953678b0a72455811763dab97327cf40xea5d7dee126511222021-09-24 17:51:0610 hrs 55 mins ago0x26377e03700722018f2c5071c0bb61af6b401a25OUT 0x4bc089e14fa31a02764e8874fa7b921f7eaa647f0 BNB0.00406185
0x43e6758a0a20f74e2d349c9b36ef540ef321d4d8357e9c4d3e94d04eb938ebe30xb65c474d126508832021-09-24 17:39:0911 hrs 7 mins ago0x26377e03700722018f2c5071c0bb61af6b401a25OUT 0x4bc089e14fa31a02764e8874fa7b921f7eaa647f0 BNB0.00237212
0xf4e8c82ccab31e93f66cb9fcae8843416abbcf8d19f420d1edcb5d41732fec060xb65c474d126496622021-09-24 16:38:0612 hrs 8 mins ago0x26377e03700722018f2c5071c0bb61af6b401a25OUT 0x4bc089e14fa31a02764e8874fa7b921f7eaa647f0 BNB0.00237212
0xede17730c6069d4ef9bd50b921d9be90be6a53b45f646ca7754df0e21b5b4b740xea5d7dee126488642021-09-24 15:55:0712 hrs 51 mins ago0x26377e03700722018f2c5071c0bb61af6b401a25OUT 0x4bc089e14fa31a02764e8874fa7b921f7eaa647f0 BNB0.00425385
0xc18b7b8cc1461babe70a3bd4ff2d220197106b6bbb6fe624fe90a8db760676aa0xb65c474d126485682021-09-24 15:36:0813 hrs 10 mins ago0x26377e03700722018f2c5071c0bb61af6b401a25OUT 0x4bc089e14fa31a02764e8874fa7b921f7eaa647f0 BNB0.00237212
0x88ba026c861a748405603a0c84c63a670fbac3bee987c4a09a3ceac2903138850xb65c474d126473532021-09-24 14:34:0814 hrs 12 mins ago0x26377e03700722018f2c5071c0bb61af6b401a25OUT 0x4bc089e14fa31a02764e8874fa7b921f7eaa647f0 BNB0.00237212
0x3b9d17aff1e7b75111e6985ac11f9cd7520e471d3d9b1c63adde27627fdbae840xea5d7dee126466332021-09-24 13:58:0814 hrs 48 mins ago0x26377e03700722018f2c5071c0bb61af6b401a25OUT 0x4bc089e14fa31a02764e8874fa7b921f7eaa647f0 BNB0.00425385
0xaec8598ceccf44e39add2ceb31e51794108f29c995e11a83cdaddd67578943590xb65c474d126461332021-09-24 13:33:0815 hrs 13 mins ago0x26377e03700722018f2c5071c0bb61af6b401a25OUT 0x4bc089e14fa31a02764e8874fa7b921f7eaa647f0 BNB0.00237212
0x72178a781994d5c4b133e0c4a61861be2dca72525b82bd293f487cf8f2b49f1c0xb65c474d126448932021-09-24 12:31:0816 hrs 15 mins ago0x26377e03700722018f2c5071c0bb61af6b401a25OUT 0x4bc089e14fa31a02764e8874fa7b921f7eaa647f0 BNB0.00237212
0x301ae861125d9bcc80e880fd93b48901cc507552409e6eaf528fc6443edef06b0xea5d7dee126443132021-09-24 12:02:0816 hrs 44 mins ago0x26377e03700722018f2c5071c0bb61af6b401a25OUT 0x4bc089e14fa31a02764e8874fa7b921f7eaa647f0 BNB0.00425385
[ Download CSV Export 
Parent Txn Hash Block From To Value
Loading

Contract Name:
0 BNB

Compiler Version
0

Optimization Enabled:
0 BNB

Other Settings:
-NA-
Block Transaction Gas Used Reward
Age Block Fee Address BC Fee Address Voting Power Jailed Incoming
Block Uncle Number Difficulty Gas Used Reward
Loading